Zurück zum Katalog

STARLINK-33875

AktivKommunikationVLEO
NORAD 63789·PAYLOAD·🇺🇸 United States

Gestartet May 2, 2025 von Cape Canaveral Space Force Station

Loading…

Nächste Überflüge (nächste 24 Stunden)

TLE

AktuellSource: CelesTrak SupGP

Epoche: Sep 14, 2026, 21:09 UTC

1 63789C 25091Q   26257.88173611  .00050451  00000+0  18279-2 0  2577
2 63789  43.0042  63.9016 0001579 274.1782 264.3589 15.27542921    12

Verfolge STARLINK-33875 in Echtzeit mit AllMySat

Download on the App Store